Weather History for Pittsfield, MA

Change the Weather History Date:

Sunday, September 15, 2013

  Actual Average Record
Temperature  
Mean Temperature 52 °F 59 °F  
Max Temperature 65 °F 70 °F 93 °F (1931)
Min Temperature 39 °F 48 °F 35 °F (1946)
Degree Days  
Heating Degree Days 13 7  
Month to date heating degree days 84 70  
Since 1 July heating degree days 140 148  
Cooling Degree Days 0 0  
Month to date cooling degree days 33 16  
Year to date cooling degree days 433 286  
Growing Degree Days 2 (Base 50)    
Moisture  
Dew Point 44 °F    
Average Humidity 71    
Maximum Humidity 93    
Minimum Humidity 48    
Precipitation  
Precipitation 0.00 in 0.14 in 2.49 in (1933)
Month to date precipitation 2.45 1.77  
Year to date precipitation 30.55 31.55  
Sea Level Pressure  
Sea Level Pressure 30.11 in    
Wind  
Wind Speed 4 mph (WSW)    
Max Wind Speed 12 mph    
Max Gust Speed 14 mph    
Visibility 7 miles    
Events Fog    
T = Trace of Precipitation, MM = Missing Value Source: NWS Daily Summary

Daily Weather History Graph

Daily Weather History Graph

Search for Another Location

Airport:

Trip Planner

Search our weather history database for the weather conditions in past years. The results will help you decide how hot, cold, wet, or windy it might be!

Date:

Astronomy

Sep. 15, 2013 Rise Set
Actual Time 6:33 AM EDT 7:02 PM EDT
Civil Twilight 6:05 AM EDT 7:30 PM EDT
Nautical Twilight 5:31 AM EDT 8:03 PM EDT
Astronomical Twilight 4:57 AM EDT 8:38 PM EDT
Moon 4:31 PM EDT (9/15) 2:03 AM EDT (9/15)
Length of Visible Light 13h 25m
Length of Day
12h 29m
Waxing Gibbous, 82% of the Moon is Illuminated
Sep 15
Waxing Gibbous
Sep 19
Full
Sep 26
Last Quarter
Oct 4
New
Oct 11
First Quarter

Hourly Weather History & Observations

Time (EDT) Temp. Windchill Dew Point Humidity Pressure Visibility Wind Dir Wind Speed Gust Speed Precip Events Conditions
12:54 AM 46.9 °F - 41.0 °F 80% 30.08 in 10.0 mi Calm Calm - N/A   Clear
1:54 AM 45.0 °F 43.5 °F 41.0 °F 86% 30.09 in 10.0 mi SSW 3.5 mph - N/A   Clear
2:54 AM 43.0 °F - 39.9 °F 89% 30.09 in 10.0 mi Calm Calm - N/A   Clear
3:54 AM 44.1 °F - 39.9 °F 85% 30.10 in 10.0 mi Calm Calm - N/A   Clear
4:45 AM 39.2 °F 35.0 °F 39.2 °F 100% 30.13 in 1.5 mi WSW 5.8 mph - N/A   Partly Cloudy
4:47 AM 39.2 °F 35.0 °F 39.2 °F 100% 30.13 in 0.5 mi WSW 5.8 mph - N/A Fog Fog
4:54 AM 41.0 °F 38.0 °F 39.9 °F 96% 30.12 in 0.2 mi WSW 4.6 mph - N/A Fog Fog
5:02 AM 41.0 °F 38.0 °F 39.2 °F 93% 30.13 in 1.0 mi SW 4.6 mph - N/A   Mist
5:07 AM 42.8 °F 40.1 °F 41.0 °F 93% 30.13 in 2.5 mi SW 4.6 mph - N/A   Scattered Clouds
5:14 AM 42.8 °F - 41.0 °F 93% 30.13 in 10.0 mi Calm Calm - N/A   Scattered Clouds
5:54 AM 39.0 °F 34.0 °F 37.9 °F 96% 30.13 in 10.0 mi WSW 6.9 mph - N/A   Clear
6:35 AM 39.2 °F 37.0 °F 39.2 °F 100% 30.15 in 1.0 mi WSW 3.5 mph - N/A   Mist
6:39 AM 39.2 °F 35.0 °F 39.2 °F 100% 30.15 in 0.2 mi West 5.8 mph - N/A Fog Fog
6:54 AM 41.0 °F 36.4 °F 39.9 °F 96% 30.14 in 0.2 mi WSW 6.9 mph - N/A Fog Fog
7:05 AM 42.8 °F 38.0 °F 41.0 °F 93% 30.15 in 1.0 mi WSW 8.1 mph - N/A   Mist
7:09 AM 42.8 °F 38.0 °F 41.0 °F 93% 30.15 in 2.0 mi WSW 8.1 mph - N/A   Scattered Clouds
7:17 AM 42.8 °F 40.1 °F 42.8 °F 100% 30.15 in 10.0 mi WSW 4.6 mph - N/A   Partly Cloudy
7:54 AM 46.0 °F 44.8 °F 44.1 °F 93% 30.14 in 10.0 mi West 3.5 mph - N/A   Clear
8:54 AM 51.1 °F - 44.1 °F 77% 30.14 in 10.0 mi West 5.8 mph - N/A   Clear
9:54 AM 55.0 °F - 44.1 °F 67% 30.16 in 10.0 mi NW 8.1 mph - N/A   Clear
10:54 AM 57.9 °F - 43.0 °F 58% 30.15 in 10.0 mi NNW 5.8 mph - N/A   Clear
11:54 AM 62.1 °F - 46.0 °F 56% 30.14 in 10.0 mi WNW 8.1 mph - N/A   Clear
12:54 PM 63.0 °F - 46.9 °F 56% 30.12 in 10.0 mi West 8.1 mph - N/A   Clear
1:54 PM 62.1 °F - 46.0 °F 56% 30.11 in 10.0 mi West 5.8 mph - N/A   Clear
2:54 PM 63.0 °F - 46.0 °F 54% 30.09 in 10.0 mi WNW 4.6 mph - N/A   Clear
3:54 PM 64.0 °F - 45.0 °F 50% 30.07 in 10.0 mi West 6.9 mph - N/A   Clear
4:54 PM 63.0 °F - 46.9 °F 56% 30.07 in 10.0 mi West 4.6 mph - N/A   Clear
5:54 PM 61.0 °F - 48.9 °F 64% 30.06 in 10.0 mi WSW 3.5 mph - N/A   Clear
6:54 PM 59.0 °F - 50.0 °F 72% 30.05 in 10.0 mi SW 3.5 mph - N/A   Clear
7:54 PM 55.9 °F - 50.0 °F 80% 30.06 in 10.0 mi WSW 3.5 mph - N/A   Clear
8:54 PM 54.0 °F - 48.9 °F 83% 30.06 in 10.0 mi West 3.5 mph - N/A   Clear
9:54 PM 53.1 °F - 50.0 °F 89% 30.05 in 10.0 mi Calm Calm - N/A   Clear
10:54 PM 53.1 °F - 50.0 °F 89% 30.04 in 10.0 mi Calm Calm - N/A   Clear
11:54 PM 54.0 °F - 48.9 °F 83% 30.03 in 10.0 mi West 3.5 mph - N/A   Clear